Wind_Speed
38 37 37 37 37 36 36 36 38 36 35 32 31 31 30 30 30 29 29 29 29 29 28 28 27 27 26 26 26 26 26 26 27 28 28 29 30 29 29 30 31 32 33 34
39 38 38 39 37 37 37 37 37 36 35 33 33 32 31 30 30 30 30 30 30 29 29 29 28 27 27 26 26 26 27 27 28 28 29 30 31 30 31 31 32 33 33 33
40 39 40 39 35 36 37 36 36 35 34 34 33 32 31 31 31 31 31 30 30 30 29 29 29 28 27 27 28 28 27 27 28 28 28 29 30 30 31 31 31 32 33 34
41 40 41 37 36 36 36 36 35 35 34 35 34 32 31 31 31 31 31 30 29 28 28 28 29 28 27 27 28 27 27 27 27 27 27 28 29 30 31 31 31 32 33 34
41 41 41 38 37 36 36 35 36 36 35 35 34 33 31 31 31 31 31 30 29 28 28 28 28 28 27 27 28 28 28 28 28 28 28 29 29 30 30 30 31 32 33 33
38 40 40 39 38 37 37 36 35 36 35 35 34 33 31 32 32 32 31 31 29 29 29 29 29 29 28 28 28 29 29 28 27 28 29 29 29 30 31 31 32 33 33 33
36 38 39 37 36 36 37 36 35 36 36 35 34 33 32 33 33 33 32 32 31 30 29 30 30 29 29 29 29 29 29 29 28 28 28 29 29 29 30 30 30 31 32 32
36 37 36 34 36 37 36 36 35 35 34 34 33 33 33 32 33 34 33 33 32 32 31 31 31 30 30 30 30 30 30 30 29 29 29 29 30 30 30 30 29 30 30 31
36 36 35 36 37 37 36 36 35 35 34 34 33 33 33 32 33 34 35 34 33 33 33 33 32 32 32 31 30 29 30 30 31 31 30 30 30 30 30 30 31 31 31 32
35 34 35 35 36 37 37 36 36 35 34 33 33 32 32 32 33 34 34 34 34 33 33 33 33 33 33 32 31 31 31 31 31 32 32 31 31 31 31 32 32 33 33 33
34 33 33 33 33 33 34 35 35 35 35 35 34 34 34 34 34 33 33 34 35 34 34 33 33 34 33 33 33 33 32 33 33 33 33 33 33 32 32 33 34 34 34 35
32 31 32 32 32 33 32 32 33 34 34 34 33 33 33 33 34 34 35 35 35 35 35 34 34 33 33 33 33 33 33 34 34 34 34 34 34 34 34 35 35 36 36 37
32 32 32 32 32 31 31 31 31 32 32 32 32 32 32 32 33 34 34 34 34 34 34 33 32 32 33 33 34 34 34 34 34 34 34 35 35 36 35 36 37 37 37 37
31 31 30 30 30 30 30 30 30 30 29 29 30 32 32 31 31 31 31 32 32 32 33 33 32 32 32 32 33 33 33 34 35 35 35 35 35 36 36 37 36 37 37 38
30 30 29 28 27 28 28 28 28 28 28 29 29 31 31 32 31 31 30 31 31 32 32 32 33 33 33 33 34 34 34 35 35 35 35 35 35 35 36 36 36 37 37 38
28 28 29 28 27 27 27 27 27 27 28 29 29 30 31 31 31 31 31 31 31 31 32 32 32 33 33 34 34 35 35 35 35 35 36 35 35 35 35 36 36 36 37 37
27 27 27 27 27 27 27 27 28 28 28 28 29 29 30 30 30 30 30 31 32 32 32 33 33 34 34 35 35 35 35 35 35 35 35 35 35 35 36 36 36 37 37 37
25 25 26 26 26 27 27 27 27 27 27 27 28 28 28 28 28 29 30 31 31 32 33 33 34 34 34 34 34 34 34 34 34 34 35 35 36 36 37 37 37 37 37 37
23 24 25 26 26 26 27 27 26 26 26 26 27 28 28 29 29 30 30 30 31 32 32 32 33 33 33 33 33 33 34 34 34 35 35 36 37 37 37 37 37 37 37 37
24 25 25 25 25 25 25 26 26 26 26 27 28 29 29 29 30 30 30 30 31 31 31 32 32 32 33 33 33 33 34 34 35 35 36 36 37 37 38 38 37 37 37 38
25 25 25 25 25 25 26 27 27 28 28 28 29 30 30 30 31 31 31 31 32 32 32 32 32 33 33 33 33 34 34 35 35 35 36 37 37 37 37 37 37 37 38 38
23 23 23 24 25 26 26 27 27 28 29 29 30 30 30 30 31 31 32 32 33 33 33 33 34 34 34 34 35 35 35 35 36 36 36 36 36 36 36 36 37 37 37 37
22 22 22 23 24 25 26 26 27 27 28 29 29 29 30 30 31 32 32 33 34 34 34 35 35 35 35 35 35 35 35 35 36 36 36 36 36 36 36 36 36 36 36 36
21 21 21 21 22 23 24 24 25 26 27 28 29 29 29 30 30 31 32 33 33 34 34 34 35 35 35 35 35 35 35 35 36 36 36 36 35 35 35 35 35 35 34 33
21 20 21 21 22 22 23 24 24 24 25 26 27 28 29 30 30 31 31 32 32 33 33 33 33 34 34 34 34 35 35 35 35 35 35 34 34 34 34 33 32 31 31 30
20 20 20 21 21 22 22 23 24 24 25 26 27 27 28 29 29 29 30 30 30 31 31 31 31 32 32 33 33 33 33 33 33 33 33 32 32 31 31 30 29 29 28 28
20 20 21 21 21 22 22 23 23 24 25 26 26 27 28 28 28 28 29 29 30 30 30 30 30 30 30 31 31 31 31 31 30 30 30 29 29 28 28 27 27 27 27 27
Wind_Direction
265 266 267 268 267 268 269 271 273 275 276 276 276 277 275 273 273 273 273 273 272 273 273 274 274 274 275 275 274 273 271 270 269 268 268 265 263 261 259 258 256 256 255 254
264 263 264 266 266 267 267 269 271 273 274 274 275 275 275 274 273 273 273 273 272 272 271 272 272 273 274 274 273 271 270 269 269 270 270 267 263 262 261 260 259 256 256 257
264 262 263 265 267 265 265 267 270 271 273 273 273 274 274 273 273 273 273 274 272 271 270 270 271 272 272 272 273 273 272 271 271 270 269 266 264 262 262 260 258 257 258 258
266 264 264 266 266 265 265 265 267 269 270 270 271 272 272 272 272 272 272 273 273 270 269 268 270 270 271 272 273 273 273 273 271 270 269 265 265 265 263 261 259 259 259 259
267 267 266 264 265 266 265 264 265 267 268 269 270 271 271 270 270 270 270 271 271 270 269 268 270 270 270 272 272 273 274 274 272 271 269 268 268 267 265 263 261 261 260 260
267 268 269 267 266 264 264 264 264 265 266 268 270 270 268 268 268 268 269 270 271 270 269 269 270 270 269 270 271 272 273 274 275 273 273 272 271 268 266 265 265 264 263 263
267 267 269 269 268 266 264 265 264 264 266 268 269 269 267 266 266 267 267 268 269 270 270 270 271 271 270 270 271 271 271 272 274 275 275 274 272 272 270 268 267 267 266 265
268 268 269 268 267 265 265 263 263 265 266 267 268 268 267 266 267 266 266 267 269 269 270 271 272 272 271 271 271 271 271 272 274 276 276 276 273 272 272 270 270 269 269 267
269 269 270 268 267 266 265 263 263 263 264 265 265 266 266 265 265 265 265 266 268 268 269 271 272 273 271 269 269 271 272 273 275 276 276 275 274 273 272 270 271 272 272 271
269 269 268 268 268 268 266 264 263 262 262 263 262 263 264 264 264 265 265 265 267 267 267 269 270 271 270 268 268 270 271 272 274 275 275 275 274 273 272 271 272 272 272 272
270 269 268 267 267 267 266 264 264 263 262 262 262 264 264 264 264 265 266 266 267 268 268 268 268 268 268 267 267 269 271 272 273 274 274 274 273 272 272 272 271 272 273 273
271 270 269 267 266 266 265 263 263 262 263 262 262 263 264 264 264 265 266 267 268 268 268 269 268 267 267 267 267 269 271 272 273 273 273 273 273 273 274 273 273 273 274 275
271 270 270 268 266 266 264 263 263 263 262 261 261 262 262 263 263 264 265 267 267 267 267 267 266 266 266 267 269 270 271 272 273 273 274 274 274 274 274 274 274 274 274 275
270 270 270 269 267 265 264 264 265 264 262 261 262 262 262 262 264 265 265 266 266 266 266 266 266 267 267 268 270 270 271 272 273 274 275 276 275 274 274 273 273 273 274 275
270 269 269 269 267 265 264 264 263 262 262 262 262 262 263 264 265 265 264 264 265 266 266 267 267 267 268 269 271 271 272 273 274 275 275 275 275 275 274 273 273 273 274 275
267 267 267 268 268 267 265 264 263 262 262 263 262 262 263 263 263 263 262 262 264 265 266 266 268 269 269 270 270 271 272 273 274 274 274 274 275 275 275 275 275 275 276 276
266 267 266 267 267 266 265 264 264 263 263 263 262 263 262 262 262 261 262 263 263 264 264 266 268 270 271 272 271 271 272 272 272 273 274 274 275 275 276 277 278 278 278 277
270 270 270 269 268 266 266 266 266 265 264 264 264 263 263 263 263 263 264 264 265 266 267 268 270 271 272 272 272 272 272 271 272 273 274 275 276 277 277 278 278 278 278 278
274 273 272 271 270 269 268 267 266 265 265 264 264 265 265 265 265 265 265 266 267 268 269 270 270 271 272 272 272 272 271 272 272 274 275 276 277 278 278 279 279 279 279 279
277 276 275 272 271 270 267 264 263 263 264 266 266 266 266 266 266 265 265 266 267 268 268 269 270 270 271 271 271 271 272 273 274 275 277 278 279 279 279 279 279 279 279 279
279 279 277 273 271 270 268 267 267 267 268 269 268 268 268 268 268 267 266 266 267 268 269 270 270 271 271 271 272 273 274 275 276 278 279 279 280 280 280 280 280 279 279 279
281 280 278 274 272 271 270 270 270 270 270 270 270 270 269 268 268 268 268 268 269 269 270 272 272 272 272 273 275 276 277 277 278 279 280 281 281 282 281 281 281 280 280 279
281 280 278 277 275 273 273 272 272 272 271 271 271 271 271 271 270 270 270 270 271 272 273 274 274 274 274 275 276 277 278 278 278 279 280 280 281 281 281 281 281 281 281 281
284 284 281 279 278 277 277 275 275 275 274 274 273 274 273 273 273 273 273 273 273 273 274 274 275 275 275 276 277 277 278 279 279 280 280 281 281 281 281 281 281 281 280 280
285 286 285 284 282 281 280 279 277 277 277 277 276 276 275 274 274 274 274 273 273 274 275 275 275 275 275 275 276 277 279 279 280 280 281 281 281 281 281 280 280 280 279 280
285 285 286 287 286 284 282 281 280 279 278 278 278 278 278 277 276 276 275 274 274 276 277 277 276 276 276 277 277 278 279 280 280 280 280 281 281 280 280 279 279 279 280 280
287 288 289 289 289 288 286 285 284 284 284 283 282 281 280 279 278 278 277 277 277 278 278 277 277 277 278 278 278 278 278 278 279 279 279 279 279 279 279 279 279 278 279 280
Height
5598 5599 5599 5599 5601 5602 5601 5601 5601 5603 5604 5606 5605 5605 5605 5604 5604 5603 5603 5602 5602 5602 5601 5601 5600 5600 5599 5599 5598 5597 5597 5596 5596 5596 5595 5596 5596 5597 5598 5599 5600 5602 5604 5605
5587 5588 5587 5588 5591 5591 5591 5591 5591 5592 5594 5596 5595 5595 5595 5595 5595 5595 5594 5594 5594 5594 5593 5593 5592 5592 5592 5591 5591 5590 5590 5589 5589 5589 5589 5589 5589 5589 5590 5591 5592 5593 5595 5596
5574 5576 5575 5577 5582 5581 5581 5582 5583 5583 5585 5585 5585 5585 5586 5586 5586 5586 5586 5586 5585 5585 5585 5585 5585 5584 5584 5584 5583 5583 5582 5582 5581 5581 5581 5581 5581 5581 5582 5582 5583 5584 5586 5587
5562 5564 5563 5571 5570 5570 5571 5572 5573 5573 5574 5574 5574 5576 5576 5576 5576 5577 5577 5577 5577 5577 5577 5577 5577 5577 5576 5576 5575 5575 5575 5574 5574 5573 5573 5573 5574 5574 5574 5574 5575 5575 5576 5577
5551 5551 5552 5558 5559 5559 5560 5562 5562 5563 5564 5564 5565 5566 5568 5567 5568 5568 5568 5569 5569 5569 5569 5569 5569 5569 5569 5568 5568 5567 5567 5566 5566 5566 5566 5565 5565 5565 5565 5566 5566 5567 5567 5568
5541 5540 5542 5548 5548 5548 5549 5551 5553 5552 5553 5554 5555 5557 5559 5558 5558 5559 5560 5560 5560 5561 5561 5561 5561 5561 5560 5560 5560 5559 5559 5559 5558 5558 5557 5557 5557 5557 5557 5557 5558 5558 5558 5559
5531 5530 5532 5536 5537 5538 5540 5542 5542 5542 5543 5544 5545 5546 5548 5548 5549 5550 5551 5551 5552 5552 5552 5553 5553 5552 5552 5551 5551 5551 5551 5551 5550 5550 5549 5549 5549 5549 5549 5549 5549 5549 5549 5550
5522 5522 5525 5526 5525 5527 5528 5529 5530 5532 5533 5534 5535 5536 5537 5539 5540 5540 5541 5542 5542 5543 5543 5543 5543 5543 5543 5543 5542 5542 5542 5542 5542 5541 5541 5540 5540 5540 5539 5539 5540 5540 5540 5541
5513 5514 5515 5514 5514 5515 5516 5518 5520 5522 5523 5524 5526 5527 5528 5529 5530 5531 5531 5532 5533 5533 5534 5534 5534 5534 5534 5534 5534 5534 5533 5533 5533 5532 5531 5531 5530 5530 5530 5530 5530 5530 5531 5531
5502 5504 5504 5504 5504 5505 5506 5507 5509 5511 5513 5514 5515 5517 5518 5519 5520 5521 5521 5522 5523 5523 5524 5524 5524 5524 5524 5524 5525 5525 5525 5524 5524 5523 5522 5522 5521 5521 5521 5521 5521 5521 5521 5521
5493 5494 5494 5495 5494 5495 5495 5497 5498 5500 5502 5504 5505 5507 5508 5509 5510 5511 5511 5512 5513 5514 5514 5514 5514 5515 5515 5515 5515 5515 5515 5515 5514 5514 5513 5512 5512 5511 5511 5511 5510 5511 5511 5511
5484 5485 5484 5485 5485 5485 5486 5487 5488 5490 5492 5494 5495 5497 5498 5499 5500 5501 5501 5502 5503 5503 5504 5504 5504 5505 5505 5505 5505 5506 5506 5505 5504 5504 5503 5503 5502 5502 5501 5501 5500 5500 5500 5500
5475 5474 5474 5475 5476 5476 5476 5477 5479 5480 5482 5484 5485 5486 5488 5489 5490 5490 5491 5492 5493 5493 5494 5494 5494 5495 5495 5495 5495 5495 5495 5495 5494 5494 5493 5492 5492 5492 5491 5491 5490 5489 5489 5488
5466 5465 5465 5466 5467 5467 5468 5469 5470 5471 5472 5474 5475 5477 5478 5479 5480 5480 5481 5482 5482 5483 5484 5484 5484 5485 5485 5485 5485 5485 5485 5484 5484 5483 5483 5482 5481 5481 5480 5480 5480 5479 5478 5477
5457 5457 5457 5457 5458 5458 5459 5460 5461 5462 5464 5465 5466 5467 5468 5469 5470 5471 5472 5472 5473 5473 5474 5474 5475 5475 5475 5475 5475 5475 5475 5474 5474 5473 5472 5471 5471 5470 5469 5469 5469 5468 5468 5467
5449 5449 5449 5450 5450 5450 5451 5452 5453 5454 5455 5456 5457 5458 5459 5460 5461 5462 5462 5463 5463 5464 5464 5464 5465 5465 5465 5465 5464 5464 5464 5464 5463 5462 5462 5461 5460 5459 5459 5458 5457 5457 5456 5455
5441 5441 5441 5442 5442 5443 5443 5444 5445 5446 5447 5448 5449 5449 5450 5451 5452 5452 5453 5453 5454 5454 5454 5455 5455 5455 5455 5454 5454 5453 5453 5453 5452 5452 5451 5450 5449 5449 5448 5447 5446 5445 5445 5443
5433 5433 5433 5433 5434 5434 5435 5436 5437 5438 5439 5440 5440 5441 5441 5442 5442 5443 5443 5444 5444 5445 5445 5445 5445 5444 5444 5444 5443 5443 5442 5442 5442 5441 5440 5440 5439 5438 5437 5436 5435 5434 5433 5432
5426 5426 5426 5426 5426 5427 5427 5428 5429 5430 5431 5432 5432 5433 5433 5433 5434 5434 5434 5435 5435 5435 5435 5435 5435 5434 5434 5434 5433 5433 5432 5432 5431 5430 5430 5429 5428 5427 5426 5425 5424 5422 5421 5420
5419 5419 5419 5419 5419 5419 5420 5421 5421 5422 5423 5423 5424 5424 5424 5424 5425 5425 5425 5425 5425 5425 5425 5425 5425 5424 5424 5424 5423 5422 5422 5421 5420 5420 5419 5418 5417 5416 5414 5413 5412 5411 5410 5409
5413 5412 5412 5412 5412 5412 5412 5413 5414 5414 5414 5415 5415 5415 5415 5415 5415 5415 5416 5416 5416 5415 5415 5415 5415 5414 5414 5413 5412 5412 5411 5410 5410 5409 5407 5406 5405 5404 5403 5401 5400 5399 5397 5396
5406 5405 5405 5404 5404 5404 5404 5405 5405 5405 5405 5405 5405 5405 5405 5405 5405 5405 5405 5405 5405 5405 5405 5404 5404 5403 5403 5402 5402 5401 5400 5399 5398 5397 5396 5395 5393 5392 5391 5389 5388 5386 5385 5384
5400 5399 5398 5397 5397 5397 5397 5396 5396 5396 5396 5396 5396 5396 5396 5396 5395 5395 5395 5395 5394 5394 5393 5393 5392 5392 5392 5391 5390 5390 5389 5388 5386 5385 5384 5383 5382 5380 5379 5377 5376 5375 5373 5372
5394 5392 5391 5391 5390 5389 5389 5388 5388 5387 5387 5387 5386 5386 5386 5386 5385 5385 5384 5384 5383 5383 5382 5382 5381 5380 5380 5379 5379 5378 5377 5376 5375 5374 5372 5371 5370 5368 5367 5366 5364 5363 5362 5361
5388 5386 5385 5384 5383 5382 5381 5381 5380 5379 5378 5378 5377 5376 5376 5375 5375 5374 5374 5373 5372 5372 5371 5370 5370 5369 5368 5368 5367 5366 5365 5364 5363 5362 5361 5360 5358 5357 5356 5354 5353 5352 5351 5350
5382 5380 5379 5378 5376 5375 5374 5373 5372 5371 5370 5369 5368 5367 5366 5366 5365 5364 5363 5363 5362 5361 5360 5359 5359 5358 5357 5357 5356 5355 5354 5353 5352 5351 5350 5349 5347 5346 5345 5344 5343 5343 5342 5341
5376 5374 5373 5371 5370 5368 5367 5366 5364 5363 5362 5361 5360 5359 5357 5356 5355 5354 5354 5353 5352 5351 5350 5349 5348 5348 5347 5346 5345 5344 5343 5342 5341 5340 5339 5338 5337 5336 5336 5335 5334 5333 5333 5332